Location: Plainartige
(45.6866°N, 1.7993°E)
Time: 11:58:16
(UTC+00:00)

deb r/b Ablestar - Pass Details

Date: 29 September 2021
Orbit: 843 x 997 km, 67.7° (Epoch: 22 October)

Event Time Altitude Azimuth Distance (km) Brightness Sun altitude
Rises 18:59:17 0° 333° (NNW) 3,412 ? -15.2°
Reaches altitude 10° 19:02:14 10° 348° (NNW) 2,477 ? -15.7°
Maximum altitude 19:06:47 24° 41° (NE) 1,705 ? -16.5°
Enters shadow 19:08:39 20° 69° (ENE) 1,867 ? -16.8°
